COSMOS 2535 DEB, 44712

Orbit data source: Space-Track

COSMOS 2535 DEB, 44712 is space debris in SSO originally from a launch on Wed, 10 Jul 2019 UTC launched from the Plesetsk Missile And Space Complex (PKMTR). Debris objects in space refer to the collection of defunct objects orbiting the Earth. Examples of debris include non-operational satellites, rocket bodies, and fragments generated from explosions, collisions, or faulty payload assembly.

Loading next visibility...
Identifier
44712, 2019-039P
Orbit
SSO
Country
Flag of CISCIS
Related business
Manufacturer
Unknown
Mission
Spacecraft
Bus & Motor
Unknown
Mass
Unknown
Launch date (UTC)
2019-07-10 (6 years ago)
Launch vehicle
Unknown
Launch site
Plesetsk Missile And Space Complex (PKMTR)
Object type
Payload
Rocket body
Debris
Shape & HBR
Unknown shape, 0.1 m
Radar Cross Section
Small (<0.1 m²)

Expand to show TLE details & history
Last TLE update: 1 day ago

TLE from 1 day ago
0 COSMOS 2535 DEB
1 44712U 19039P   25286.25710388  .00005338  00000-0  57544-3 0  9994
2 44712  97.6756 287.9479 0041411 104.7300 255.8512 14.88194165325737
Epoch: 2025-10-13T06:10Z
TLE epoch observation values (Epoch: 2025-10-13T06:10:13.775Z)
Latitude
Longitude
173.32802°
Altitude
613.799 km
Speed
7.548 km/s
True Right ascension
19h 11m 47s
True Declination
0° 00' 00"
Sunlit
Object was in daylight at epoch
Visualization orbit readout
Latitude
Unknown
Longitude
Unknown
Altitude
Unknown
Speed
Unknown
Apparent Right ascension
Unknown
Apparent Declination
Unknown
Sunlit
N/A
Visualization observer readout
Local Sidereal Time
07:45:25
Azimuth
Unknown
Elevation
Unknown
Doppler factor
Unknown
Orbital elements
Apogee altitude
629.497 km
Perigee altitude
571.698 km
Semi-major axis
6,978.735 km
Eccentricity
0.00414
Inclination
97.6756°
RAAN
287.9479°
Arg. of periapsis
104.73°
True anomaly
255.39165°
Mean anomaly
255.8512°
Eccentric anomaly
255.62136°
Mean motion
3.72287 °/min
Orbital period
96.7 mins
BSTAR
0.00057544
Loading maneuver chart data...
Computing Atmospheric mass density...
Loading historical data...
Loading historical data...
Loading historical data...
Loading historical data...
Loading historical data...
Loading historical data...
Loading historical data...

Documentation

Showing up to 5 results
|